Flag for Canada Weather past 2 weeks in Chatham-Kent, Ontario, Canada

Now
56 °F

Cool.


Feels Like: 55 °F
Forecast: 56 / 66 °F
Wind: 5 mph from North

Location: Erieau

Current Time: Oct 1, 2014 at 8:35:36 AM

Latest Report: Oct 1, 2014 at 7:00 AM


Visibility: N/A

Pressure: 30.02 "Hg

Humidity: 97%

Dew point: 55 °F

Location of Chatham-KentLocation

Historic Weather in Chatham-Kent — Graph

°F

Chatham-Kent temperature yesterday

Maximum temperature yesterday: 67 °F (at 2:00 AM)
Minimum temperature yesterday: 53 °F (at 11:00 PM)
Average temperature yesterday: 59 °F

Past Weeks' High & Low Weather Summary

 TemperatureHumidityPressure
High71 °F (Sep 20, 9:00 PM)98% (Oct 1, 6:00 AM)30.45 "Hg (Oct 1, 6:00 AM)
Low46 °F (Sep 19, 5:00 AM)47% (Sep 16, 7:00 PM)29.59 "Hg (Sep 21, 7:00 AM)
Average61 °F77%30.11 "Hg
* Reported Sep 16 7:00 AM — Oct 1 7:00 AM, Chatham-Kent, Weather by CustomWeather, © 2014

Note: Actual official high and low records may vary slightly from our data, if they occured in-between our weather recording intervals... More about our weather records

Advertising

Chatham-Kent weather history for previous 24 hours

 ConditionsComfort  
Time TempWeatherWind HumidityBarometerVisibility
7:00 AM
Oct 1
56 °FCool.5 mph97%30.02 "HgN/A
6:00 AM55 °FCool.5 mph98%30.02 "HgN/A
5:00 AM54 °FCool.1 mph97%30.00 "HgN/A
4:00 AM53 °FCool.1 mph97%30.00 "HgN/A
3:00 AM53 °FCool.1 mph96%30.00 "HgN/A
2:00 AM53 °FCool.1 mph95%30.01 "HgN/A
1:00 AM54 °FCool.1 mph94%30.01 "HgN/A
12:00 AM53 °FCool.5 mph93%30.01 "HgN/A
11:00 PM
Sep 30
53 °FCool.2 mph93%30.00 "HgN/A
10:00 PM53 °FCool.2 mph90%29.98 "HgN/A
9:00 PM55 °FCool.6 mph85%29.97 "HgN/A
8:00 PM56 °FCool.2 mph82%29.98 "HgN/A
7:00 PM57 °FCool.2 mph81%29.97 "HgN/A
6:00 PM57 °FCool.2 mph82%29.95 "HgN/A
5:00 PM58 °FCool.3 mph80%29.93 "HgN/A
4:00 PM57 °FCool.2 mph84%29.93 "HgN/A
3:00 PM57 °FCool.2 mph86%29.93 "HgN/A
2:00 PM58 °FCool.3 mph81%29.93 "HgN/A
1:00 PM58 °FCool.2 mph84%29.93 "HgN/A
11:00 AM56 °FCool.2 mph92%29.92 "HgN/A
10:00 AM55 °FCool.2 mph94%29.91 "HgN/A
9:00 AM56 °FCool.2 mph93%29.90 "HgN/A
8:00 AM56 °FCool.3 mph95%29.88 "HgN/A
Weather by CustomWeather, © 2014

See weather overviewHow to use our weather pages